Weather History for Burlington, VT

Change the Weather History Date:

Monday, December 16, 2013

  Actual Average Record
Temperature  
Mean Temperature 6 °F 26 °F  
Max Temperature 15 °F 33 °F 54 °F (1982)
Min Temperature -4 °F 18 °F -18 °F (1917)
Degree Days  
Heating Degree Days 59 39  
Month to date heating degree days 630 579  
Since 1 July heating degree days 2123 2124  
Cooling Degree Days 0 0  
Month to date cooling degree days 0 0  
Year to date cooling degree days 662 491  
Moisture  
Dew Point -1 °F    
Average Humidity 70    
Maximum Humidity 91    
Minimum Humidity 48    
Precipitation  
Precipitation T in 0.07 in 1.03 in (2007)
Month to date precipitation 1.01 1.33  
Year to date precipitation 43.46 35.77  
Snow  
Snow T in 0.60 in 11.90 in (2007)
Month to date snowfall 8.5 8.2  
Since 1 July snowfall 14.9 13.6  
Snow Depth 6.00 in    
Sea Level Pressure  
Sea Level Pressure 30.00 in    
Wind  
Wind Speed 8 mph (North)    
Max Wind Speed 18 mph    
Max Gust Speed 22 mph    
Visibility 10 miles    
Events Snow    
T = Trace of Precipitation, MM = Missing Value Source: NWS Daily Summary

Daily Weather History Graph

Daily Weather History Graph

Search for Another Location

Airport:

Trip Planner

Search our weather history database for the weather conditions in past years. The results will help you decide how hot, cold, wet, or windy it might be!

Date:

Astronomy

Dec. 16, 2013 Rise Set
Actual Time 7:22 AM EST 4:13 PM EST
Civil Twilight 6:49 AM EST 4:47 PM EST
Nautical Twilight 6:12 AM EST 5:24 PM EST
Astronomical Twilight 5:37 AM EST 5:59 PM EST
Moon 4:04 PM EST (12/16) 6:26 AM EST (12/16)
Length of Visible Light 9h 57m
Length of Day
8h 50m
Full, 100% of the Moon is Illuminated
Dec 16
Full
Dec 17
Full
Dec 25
Last Quarter
Jan 1
New
Jan 7
First Quarter

Hourly Weather History & Observations

Time (EST) Temp. Windchill Dew Point Humidity Pressure Visibility Wind Dir Wind Speed Gust Speed Precip Events Conditions
12:54 AM 9.0 °F - 6.1 °F 88% 29.72 in 10.0 mi Calm Calm - N/A   Overcast
1:54 AM 10.0 °F 3.6 °F 6.1 °F 84% 29.74 in 9.0 mi ESE 3.5 mph - N/A   Overcast
2:54 AM 10.0 °F - 6.1 °F 84% 29.77 in 8.0 mi Calm Calm - N/A   Overcast
3:24 AM 10.9 °F - 7.0 °F 84% 29.77 in 5.0 mi Calm Calm - 0.00 in Snow Light Snow
3:44 AM 10.9 °F - 6.1 °F 81% 29.77 in 7.0 mi Calm Calm - 0.00 in   Overcast
3:54 AM 10.9 °F - 7.0 °F 84% 29.80 in 10.0 mi Calm Calm - 0.00 in   Overcast
4:54 AM 15.1 °F -0.1 °F 5.0 °F 64% 29.83 in 10.0 mi WNW 15.0 mph 23.0 mph N/A   Partly Cloudy
5:54 AM 12.9 °F -0.9 °F 1.9 °F 62% 29.88 in 10.0 mi NW 11.5 mph - N/A   Clear
6:54 AM 8.1 °F -5.3 °F 1.9 °F 76% 29.91 in 10.0 mi North 9.2 mph - N/A   Partly Cloudy
7:54 AM 8.1 °F -6.2 °F -2.0 °F 64% 29.94 in 10.0 mi North 10.4 mph - N/A   Partly Cloudy
8:54 AM 9.0 °F -6.6 °F -2.0 °F 61% 29.98 in 10.0 mi North 12.7 mph - N/A   Scattered Clouds
9:54 AM 10.9 °F -4.1 °F -0.0 °F 61% 30.00 in 10.0 mi NNW 12.7 mph - N/A   Partly Cloudy
10:54 AM 10.0 °F -5.9 °F -0.9 °F 61% 30.01 in 10.0 mi NNW 13.8 mph - N/A   Partly Cloudy
11:54 AM 12.9 °F -2.2 °F -0.9 °F 54% 30.01 in 10.0 mi NW 13.8 mph - N/A   Partly Cloudy
12:54 PM 14.0 °F -0.8 °F -2.0 °F 49% 30.01 in 10.0 mi NW 13.8 mph - N/A   Partly Cloudy
1:54 PM 14.0 °F -0.8 °F -0.9 °F 52% 30.02 in 10.0 mi NW 13.8 mph - N/A   Partly Cloudy
2:54 PM 12.9 °F -0.9 °F -2.9 °F 49% 30.05 in 10.0 mi NNW 11.5 mph - N/A   Scattered Clouds
3:54 PM 12.0 °F -4.0 °F -4.0 °F 49% 30.09 in 10.0 mi NW 15.0 mph - N/A   Partly Cloudy
4:54 PM 7.0 °F -5.7 °F -4.0 °F 61% 30.13 in 10.0 mi NNE 8.1 mph - N/A   Partly Cloudy
5:54 PM 5.0 °F -5.6 °F -5.1 °F 63% 30.17 in 10.0 mi East 5.8 mph - N/A   Scattered Clouds
6:54 PM 1.9 °F -9.2 °F -6.0 °F 69% 30.20 in 10.0 mi East 5.8 mph - N/A   Scattered Clouds
7:54 PM 1.9 °F -7.6 °F -7.1 °F 66% 30.23 in 10.0 mi NE 4.6 mph - N/A   Clear
8:54 PM -0.9 °F - -9.0 °F 69% 30.24 in 10.0 mi Calm Calm - N/A   Partly Cloudy
9:54 PM -0.9 °F -11.0 °F -9.0 °F 69% 30.26 in 10.0 mi East 4.6 mph - N/A   Clear
10:54 PM -2.9 °F -15.0 °F -9.0 °F 75% 30.27 in 10.0 mi East 5.8 mph - N/A   Scattered Clouds
11:54 PM -2.9 °F -15.0 °F -9.0 °F 75% 30.27 in 10.0 mi East 5.8 mph - N/A   Clear